Sant Hilari Sacalm-Els Cortals (La Selva)





Hora UTC 07:10
Temperatura 18.2 ºC
Humitat 87.0 %
Pressió 1000.3 hPa
Pluja 0.2 mm
Velocitat vent 3.2 km/h
Direcció vent ESE

Dades diàries 2024-07-21



Hora UTC (hivern +1h; estiu +2h)
Temperatura (ºC) Humitat (%) Pressió (hPa) Velocitat vent (km/h) Precipitació (mm)
Hora UTC Aire Humitat Pressió Vel. Dir. Vel. Max Dir. Intent. màx 5 min.
00:05 22.2 71.0 999.6 0.0 NE 0.0 0.0
00:10 22.1 72.0 999.6 0.0 E 6.4 0.0
00:15 22.2 72.0 999.6 0.0 E 6.4 0.0
00:20 22.2 72.0 999.7 0.0 E 3.2 0.0
00:25 22.2 72.0 999.7 0.0 E 0.0 0.0
00:30 22.2 73.0 999.5 0.0 ENE 0.0 0.0
00:35 22.3 75.0 999.6 1.6 ENE 3.2 0.0
00:40 22.3 75.0 999.5 0.0 ENE 6.4 0.0
00:45 22.2 75.0 999.5 0.0 ENE 6.4 0.0
00:50 22.1 76.0 999.5 0.0 ENE 1.6 0.0
00:55 21.9 77.0 999.5 0.0 ESE 0.0 0.0
01:00 21.8 78.0 999.5 1.6 E 3.2 0.0
01:05 21.7 79.0 999.7 0.0 E 1.6 0.0
01:10 21.5 79.0 999.7 0.0 S 6.4 0.0
01:15 21.4 80.0 999.5 0.0 NE 1.6 0.0
01:20 21.2 80.0 999.6 8.0 E 8.0 0.0
01:25 21.2 80.0 999.7 0.0 NE 9.7 0.0
01:30 21.1 80.0 999.8 1.6 NE 8.0 0.0
01:35 20.9 81.0 999.7 1.6 ENE 8.0 0.0
01:40 20.9 83.0 999.7 1.6 NE 11.3 0.0
01:45 20.9 84.0 999.7 1.6 ESE 11.3 0.0
01:50 20.8 84.0 999.7 1.6 NE 12.9 0.0
01:55 20.7 84.0 999.6 6.4 E 12.9 0.0
02:00 20.5 84.0 999.7 6.4 NE 11.3 0.0
02:05 20.3 84.0 999.6 6.4 ENE 11.3 0.0
02:10 20.3 84.0 999.7 3.2 NNE 11.3 0.0
02:15 20.1 84.0 999.6 6.4 ENE 9.7 0.0
02:20 20.0 84.0 999.6 3.2 E 11.3 0.0
02:25 19.9 85.0 999.6 8.0 ENE 11.3 0.0
02:30 19.8 86.0 999.6 6.4 ESE 11.3 0.0
02:35 19.8 86.0 999.6 11.3 SE 17.7 0.0
02:40 19.7 87.0 999.8 4.8 E 17.7 0.0
02:45 19.7 88.0 999.7 8.0 E 14.5 0.0
02:50 19.6 89.0 999.5 11.3 ENE 12.9 0.0
02:55 19.4 89.0 999.8 9.7 E 17.7 0.0
03:00 19.3 90.0 999.8 3.2 ENE 17.7 0.0
03:05 19.3 90.0 999.8 6.4 ESE 12.9 0.0
03:10 19.2 90.0 999.8 12.9 E 12.9 0.0
03:15 19.2 91.0 999.9 9.7 ENE 14.5 0.0
03:20 19.2 91.0 999.9 6.4 NE 14.5 0.0
03:25 19.2 91.0 1000.0 6.4 ENE 12.9 0.0
03:30 19.2 91.0 1000.0 6.4 E 14.5 0.0
03:35 19.2 91.0 1000.0 6.4 ENE 14.5 0.0
03:40 19.2 91.0 1000.0 3.2 ENE 16.1 0.0
03:45 19.1 91.0 1000.0 6.4 NE 16.1 0.0
03:50 19.2 91.0 1000.0 9.7 NNE 14.5 0.0
03:55 19.2 91.0 1000.0 9.7 ENE 14.5 0.0
04:00 19.2 91.0 1000.1 9.7 NE 16.1 0.0
04:05 19.2 91.0 1000.0 9.7 ENE 14.5 0.0
04:10 19.2 91.0 1000.0 6.4 NE 14.5 0.0
04:15 19.2 91.0 1000.0 4.8 E 14.5 0.0
04:20 19.2 91.0 999.8 6.4 ESE 14.5 0.0
04:25 19.2 91.0 999.8 9.7 NNE 14.5 0.3
04:30 19.2 90.0 999.7 9.7 E 14.5 0.0
04:35 19.2 90.0 999.8 1.6 ENE 14.5 0.0
04:40 19.1 90.0 999.9 6.4 E 17.7 0.0
04:45 19.0 90.0 999.9 1.6 NNE 17.7 0.0
04:50 18.9 90.0 999.9 1.6 E 14.5 0.0
04:55 18.9 90.0 999.9 3.2 NNE 14.5 0.0
05:00 18.8 90.0 1000.1 8.0 NE 14.5 0.0
05:05 18.7 90.0 1000.2 1.6 ENE 12.9 0.0
05:10 18.6 90.0 1000.2 3.2 ESE 8.0 0.0
05:15 18.5 90.0 1000.2 1.6 NE 9.7 0.0
05:20 18.4 90.0 1000.2 1.6 E 9.7 0.0
05:25 18.3 90.0 1000.3 3.2 ESE 9.7 0.0
05:30 18.2 90.0 1000.3 0.0 E 8.0 0.0
05:35 18.2 90.0 1000.2 1.6 E 9.7 0.0
05:40 18.1 89.0 1000.2 4.8 ESE 9.7 0.0
05:45 18.1 89.0 1000.1 3.2 ENE 11.3 0.0
05:50 18.0 89.0 1000.1 1.6 ESE 9.7 0.0
05:55 17.9 89.0 1000.3 1.6 E 11.3 0.0
06:00 17.8 89.0 1000.3 6.4 ESE 11.3 0.0
06:05 17.8 89.0 1000.5 1.6 SSE 9.7 0.0
06:10 17.7 89.0 1000.4 0.0 SSE 6.4 0.0
06:15 17.7 89.0 1000.5 0.0 SW 9.7 0.0
06:20 17.7 89.0 1000.6 4.8 WSW 11.3 0.0
06:25 17.8 88.0 1000.8 1.6 SW 11.3 0.0
06:30 17.8 88.0 1000.7 3.2 WSW 6.4 0.0
06:35 17.8 88.0 1000.8 1.6 WSW 8.0 0.0
06:40 17.8 88.0 1000.9 4.8 W 8.0 0.0
06:45 17.8 88.0 1000.8 0.0 WNW 8.0 0.0
06:50 17.8 88.0 1000.6 3.2 SSW 4.8 0.0
06:55 17.8 88.0 1000.7 3.2 S 8.0 0.0
07:00 18.1 87.0 1000.7 0.0 SE 8.0 0.0
07:05 18.2 87.0 1000.6 3.2 E 8.0 0.0
07:10 18.2 87.0 1000.3 3.2 ESE 8.0 0.0
Màxima 22.9 91.0 1000.9 12.9 E 17.7 0.3
Mínima 17.7 71.0 999.5
Total 0.3